Data supplied by UK-AIR on 5/4/2008
All Data GMT hour ending 
Status: R =Ratified P=Provisional,P*=As supplied
,,Oxford Centre Roadside,,,,,,,,,,,,,,,,,,,,,,,
Date,time,"Carbon monoxide",status,unit,"Nitric oxide",status,unit,"Nitrogen dioxide",status,unit,"Nitrogen oxides as nitrogen dioxide",status,unit,"Sulphur dioxide",status,unit
 
01-01-1997,01:00,,,,,,,,,,,,,,,
01-01-1997,02:00,,,,,,,,,,,,,,,
01-01-1997,03:00,,,,,,,,,,,,,,,
01-01-1997,04:00,,,,,,,,,,,,,,,
01-01-1997,05:00,,,,,,,,,,,,,,,
01-01-1997,06:00,,,,,,,,,,,,,,,
01-01-1997,07:00,,,,,,,,,,,,,,,
01-01-1997,08:00,,,,,,,,,,,,,,,
01-01-1997,09:00,,,,,,,,,,,,,,,
01-01-1997,10:00,,,,,,,,,,,,,,,
01-01-1997,11:00,,,,,,,,,,,,,,,
01-01-1997,12:00,,,,,,,,,,,,,,,
01-01-1997,13:00,1.5,R,mgm-3,,,,,,,,,,27,R,ugm-3
01-01-1997,14:00,2.3,R,mgm-3,,,,,,,,,,19,R,ugm-3
01-01-1997,15:00,1.7,R,mgm-3,,,,,,,,,,24,R,ugm-3
01-01-1997,16:00,2.1,R,mgm-3,,,,,,,,,,19,R,ugm-3
01-01-1997,17:00,2.4,R,mgm-3,,,,,,,,,,27,R,ugm-3
01-01-1997,18:00,2.9,R,mgm-3,,,,,,,,,,27,R,ugm-3
01-01-1997,19:00,1.4,R,mgm-3,,,,,,,,,,21,R,ugm-3
01-01-1997,20:00,3.1,R,mgm-3,,,,,,,,,,21,R,ugm-3
01-01-1997,21:00,2.3,R,mgm-3,,,,,,,,,,19,R,ugm-3
01-01-1997,22:00,2.0,R,mgm-3,,,,,,,,,,21,R,ugm-3
01-01-1997,23:00,1.5,R,mgm-3,,,,,,,,,,19,R,ugm-3
01-01-1997,24:00,2.3,R,mgm-3,,,,,,,,,,16,R,ugm-3
02-01-1997,01:00,0.8,R,mgm-3,,,,,,,,,,19,R,ugm-3
02-01-1997,02:00,1.9,R,mgm-3,,,,,,,,,,13,R,ugm-3
02-01-1997,03:00,1.4,R,mgm-3,,,,,,,,,,11,R,ugm-3
02-01-1997,04:00,1.0,R,mgm-3,,,,,,,,,,13,R,ugm-3
02-01-1997,05:00,1.5,R,mgm-3,,,,,,,,,,13,R,ugm-3
02-01-1997,06:00,1.6,R,mgm-3,,,,,,,,,,13,R,ugm-3
02-01-1997,07:00,1.3,R,mgm-3,8,R,ugm-3,34,R,ugm-3,46,R,ugm-3,13,R,ugm-3
02-01-1997,08:00,1.4,R,mgm-3,9,R,ugm-3,48,R,ugm-3,61,R,ugm-3,24,R,ugm-3
02-01-1997,09:00,3.0,R,mgm-3,9,R,ugm-3,50,R,ugm-3,63,R,ugm-3,21,R,ugm-3
02-01-1997,10:00,2.6,R,mgm-3,106,R,ugm-3,183,R,ugm-3,346,R,ugm-3,27,R,ugm-3
02-01-1997,11:00,5.1,R,mgm-3,225,R,ugm-3,258,R,ugm-3,602,R,ugm-3,35,R,ugm-3
02-01-1997,12:00,4.2,R,mgm-3,155,R,ugm-3,239,R,ugm-3,476,R,ugm-3,32,R,ugm-3
02-01-1997,13:00,3.1,R,mgm-3,104,R,ugm-3,204,R,ugm-3,363,R,ugm-3,32,R,ugm-3
02-01-1997,14:00,3.6,R,mgm-3,126,R,ugm-3,223,R,ugm-3,416,R,ugm-3,29,R,ugm-3
02-01-1997,15:00,3.2,R,mgm-3,100,R,ugm-3,206,R,ugm-3,359,R,ugm-3,29,R,ugm-3
02-01-1997,16:00,2.7,R,mgm-3,120,R,ugm-3,189,R,ugm-3,372,R,ugm-3,32,R,ugm-3
02-01-1997,17:00,2.8,R,mgm-3,100,R,ugm-3,174,R,ugm-3,327,R,ugm-3,24,R,ugm-3
02-01-1997,18:00,2.6,R,mgm-3,78,R,ugm-3,178,R,ugm-3,296,R,ugm-3,24,R,ugm-3
02-01-1997,19:00,3.0,R,mgm-3,74,R,ugm-3,172,R,ugm-3,285,R,ugm-3,24,R,ugm-3
02-01-1997,20:00,2.2,R,mgm-3,50,R,ugm-3,155,R,ugm-3,231,R,ugm-3,19,R,ugm-3
02-01-1997,21:00,2.8,R,mgm-3,63,R,ugm-3,159,R,ugm-3,254,R,ugm-3,21,R,ugm-3
02-01-1997,22:00,2.4,R,mgm-3,84,R,ugm-3,168,R,ugm-3,296,R,ugm-3,27,R,ugm-3
02-01-1997,23:00,2.3,R,mgm-3,74,R,ugm-3,168,R,ugm-3,281,R,ugm-3,24,R,ugm-3
02-01-1997,24:00,1.9,R,mgm-3,53,R,ugm-3,160,R,ugm-3,241,R,ugm-3,21,R,ugm-3
03-01-1997,01:00,2.0,R,mgm-3,34,R,ugm-3,136,R,ugm-3,187,R,ugm-3,13,R,ugm-3
03-01-1997,02:00,1.2,R,mgm-3,21,R,ugm-3,96,R,ugm-3,128,R,ugm-3,16,R,ugm-3
03-01-1997,03:00,0.9,R,mgm-3,19,R,ugm-3,94,R,ugm-3,122,R,ugm-3,13,R,ugm-3
03-01-1997,04:00,1.0,R,mgm-3,13,R,ugm-3,73,R,ugm-3,92,R,ugm-3,16,R,ugm-3
03-01-1997,05:00,0.9,R,mgm-3,16,R,ugm-3,76,R,ugm-3,101,R,ugm-3,13,R,ugm-3
03-01-1997,06:00,1.3,R,mgm-3,25,R,ugm-3,82,R,ugm-3,120,R,ugm-3,16,R,ugm-3
03-01-1997,07:00,0.7,R,mgm-3,26,R,ugm-3,101,R,ugm-3,141,R,ugm-3,16,R,ugm-3
03-01-1997,08:00,1.3,R,mgm-3,50,R,ugm-3,130,R,ugm-3,206,R,ugm-3,19,R,ugm-3
03-01-1997,09:00,1.9,R,mgm-3,39,R,ugm-3,117,R,ugm-3,176,R,ugm-3,27,R,ugm-3
03-01-1997,10:00,1.3,R,mgm-3,46,R,ugm-3,124,R,ugm-3,195,R,ugm-3,29,R,ugm-3
03-01-1997,11:00,1.7,R,mgm-3,88,R,ugm-3,155,R,ugm-3,288,R,ugm-3,29,R,ugm-3
03-01-1997,12:00,1.7,R,mgm-3,65,R,ugm-3,143,R,ugm-3,243,R,ugm-3,35,R,ugm-3
03-01-1997,13:00,3.4,R,mgm-3,129,R,ugm-3,159,R,ugm-3,355,R,ugm-3,32,R,ugm-3
03-01-1997,14:00,2.8,R,mgm-3,56,R,ugm-3,141,R,ugm-3,227,R,ugm-3,29,R,ugm-3
03-01-1997,15:00,2.6,R,mgm-3,85,R,ugm-3,157,R,ugm-3,287,R,ugm-3,24,R,ugm-3
03-01-1997,16:00,2.6,R,mgm-3,81,R,ugm-3,101,R,ugm-3,225,R,ugm-3,,,
03-01-1997,17:00,2.8,R,mgm-3,55,R,ugm-3,126,R,ugm-3,210,R,ugm-3,16,R,ugm-3
03-01-1997,18:00,3.4,R,mgm-3,46,R,ugm-3,130,R,ugm-3,201,R,ugm-3,24,R,ugm-3
03-01-1997,19:00,1.4,R,mgm-3,18,R,ugm-3,88,R,ugm-3,115,R,ugm-3,21,R,ugm-3
03-01-1997,20:00,2.3,R,mgm-3,21,R,ugm-3,86,R,ugm-3,118,R,ugm-3,19,R,ugm-3
03-01-1997,21:00,1.5,R,mgm-3,25,R,ugm-3,88,R,ugm-3,126,R,ugm-3,27,R,ugm-3
03-01-1997,22:00,1.6,R,mgm-3,21,R,ugm-3,80,R,ugm-3,113,R,ugm-3,21,R,ugm-3
03-01-1997,23:00,2.1,R,mgm-3,26,R,ugm-3,86,R,ugm-3,126,R,ugm-3,24,R,ugm-3
03-01-1997,24:00,1.4,R,mgm-3,11,R,ugm-3,63,R,ugm-3,80,R,ugm-3,16,R,ugm-3
04-01-1997,01:00,1.0,R,mgm-3,6,R,ugm-3,40,R,ugm-3,50,R,ugm-3,16,R,ugm-3
04-01-1997,02:00,0.9,R,mgm-3,4,R,ugm-3,44,R,ugm-3,50,R,ugm-3,19,R,ugm-3
04-01-1997,03:00,0.7,R,mgm-3,5,R,ugm-3,32,R,ugm-3,40,R,ugm-3,19,R,ugm-3
04-01-1997,04:00,0.7,R,mgm-3,6,R,ugm-3,31,R,ugm-3,40,R,ugm-3,13,R,ugm-3
04-01-1997,05:00,0.7,R,mgm-3,3,R,ugm-3,32,R,ugm-3,36,R,ugm-3,13,R,ugm-3
04-01-1997,06:00,0.9,R,mgm-3,14,R,ugm-3,53,R,ugm-3,74,R,ugm-3,13,R,ugm-3
04-01-1997,07:00,0.8,R,mgm-3,10,R,ugm-3,42,R,ugm-3,57,R,ugm-3,13,R,ugm-3
04-01-1997,08:00,0.8,R,mgm-3,13,R,ugm-3,69,R,ugm-3,88,R,ugm-3,13,R,ugm-3
04-01-1997,09:00,2.9,R,mgm-3,28,R,ugm-3,88,R,ugm-3,130,R,ugm-3,16,R,ugm-3
04-01-1997,10:00,0.8,R,mgm-3,26,R,ugm-3,86,R,ugm-3,126,R,ugm-3,13,R,ugm-3
04-01-1997,11:00,1.3,R,mgm-3,25,R,ugm-3,74,R,ugm-3,113,R,ugm-3,16,R,ugm-3
04-01-1997,12:00,1.6,R,mgm-3,40,R,ugm-3,88,R,ugm-3,149,R,ugm-3,13,R,ugm-3
04-01-1997,13:00,1.6,R,mgm-3,34,R,ugm-3,94,R,ugm-3,145,R,ugm-3,19,R,ugm-3
04-01-1997,14:00,2.8,R,mgm-3,48,R,ugm-3,101,R,ugm-3,174,R,ugm-3,16,R,ugm-3
04-01-1997,15:00,1.5,R,mgm-3,58,R,ugm-3,107,R,ugm-3,195,R,ugm-3,11,R,ugm-3
04-01-1997,16:00,3.1,R,mgm-3,45,R,ugm-3,107,R,ugm-3,176,R,ugm-3,16,R,ugm-3
04-01-1997,17:00,1.2,R,mgm-3,38,R,ugm-3,111,R,ugm-3,168,R,ugm-3,16,R,ugm-3
04-01-1997,18:00,1.9,R,mgm-3,44,R,ugm-3,97,R,ugm-3,164,R,ugm-3,13,R,ugm-3
04-01-1997,19:00,0.9,R,mgm-3,21,R,ugm-3,67,R,ugm-3,99,R,ugm-3,16,R,ugm-3
04-01-1997,20:00,1.2,R,mgm-3,28,R,ugm-3,78,R,ugm-3,120,R,ugm-3,13,R,ugm-3
04-01-1997,21:00,1.7,R,mgm-3,10,R,ugm-3,52,R,ugm-3,67,R,ugm-3,13,R,ugm-3
04-01-1997,22:00,0.8,R,mgm-3,16,R,ugm-3,61,R,ugm-3,86,R,ugm-3,13,R,ugm-3
04-01-1997,23:00,1.2,R,mgm-3,15,R,ugm-3,59,R,ugm-3,82,R,ugm-3,13,R,ugm-3
04-01-1997,24:00,1.5,R,mgm-3,9,R,ugm-3,50,R,ugm-3,63,R,ugm-3,11,R,ugm-3
05-01-1997,01:00,1.6,R,mgm-3,8,R,ugm-3,44,R,ugm-3,55,R,ugm-3,11,R,ugm-3
05-01-1997,02:00,1.2,R,mgm-3,8,R,ugm-3,44,R,ugm-3,55,R,ugm-3,8,R,ugm-3
05-01-1997,03:00,1.0,R,mgm-3,5,R,ugm-3,31,R,ugm-3,38,R,ugm-3,13,R,ugm-3
05-01-1997,04:00,1.0,R,mgm-3,4,R,ugm-3,32,R,ugm-3,38,R,ugm-3,8,R,ugm-3
05-01-1997,05:00,1.2,R,mgm-3,3,R,ugm-3,25,R,ugm-3,29,R,ugm-3,8,R,ugm-3
05-01-1997,06:00,0.6,R,mgm-3,5,R,ugm-3,29,R,ugm-3,36,R,ugm-3,13,R,ugm-3
05-01-1997,07:00,1.2,R,mgm-3,8,R,ugm-3,34,R,ugm-3,46,R,ugm-3,11,R,ugm-3
05-01-1997,08:00,0.8,R,mgm-3,8,R,ugm-3,44,R,ugm-3,55,R,ugm-3,13,R,ugm-3
05-01-1997,09:00,1.7,R,mgm-3,15,R,ugm-3,67,R,ugm-3,90,R,ugm-3,16,R,ugm-3
05-01-1997,10:00,1.0,R,mgm-3,10,R,ugm-3,61,R,ugm-3,76,R,ugm-3,13,R,ugm-3
05-01-1997,11:00,1.9,R,mgm-3,20,R,ugm-3,76,R,ugm-3,107,R,ugm-3,19,R,ugm-3
05-01-1997,12:00,2.9,R,mgm-3,35,R,ugm-3,92,R,ugm-3,145,R,ugm-3,13,R,ugm-3
05-01-1997,13:00,2.0,R,mgm-3,21,R,ugm-3,90,R,ugm-3,122,R,ugm-3,13,R,ugm-3
05-01-1997,14:00,2.2,R,mgm-3,33,R,ugm-3,103,R,ugm-3,153,R,ugm-3,19,R,ugm-3
05-01-1997,15:00,3.0,R,mgm-3,31,R,ugm-3,92,R,ugm-3,139,R,ugm-3,16,R,ugm-3
05-01-1997,16:00,2.7,R,mgm-3,50,R,ugm-3,117,R,ugm-3,193,R,ugm-3,19,R,ugm-3
05-01-1997,17:00,3.4,R,mgm-3,51,R,ugm-3,126,R,ugm-3,204,R,ugm-3,24,R,ugm-3
05-01-1997,18:00,2.0,R,mgm-3,20,R,ugm-3,92,R,ugm-3,122,R,ugm-3,19,R,ugm-3
05-01-1997,19:00,2.8,R,mgm-3,36,R,ugm-3,120,R,ugm-3,176,R,ugm-3,19,R,ugm-3
05-01-1997,20:00,2.8,R,mgm-3,34,R,ugm-3,105,R,ugm-3,157,R,ugm-3,19,R,ugm-3
05-01-1997,21:00,3.0,R,mgm-3,41,R,ugm-3,117,R,ugm-3,180,R,ugm-3,19,R,ugm-3
05-01-1997,22:00,1.9,R,mgm-3,24,R,ugm-3,99,R,ugm-3,136,R,ugm-3,16,R,ugm-3
05-01-1997,23:00,2.6,R,mgm-3,23,R,ugm-3,86,R,ugm-3,120,R,ugm-3,21,R,ugm-3
05-01-1997,24:00,1.5,R,mgm-3,10,R,ugm-3,73,R,ugm-3,88,R,ugm-3,19,R,ugm-3
06-01-1997,01:00,0.7,R,mgm-3,8,R,ugm-3,61,R,ugm-3,73,R,ugm-3,13,R,ugm-3
06-01-1997,02:00,0.8,R,mgm-3,13,R,ugm-3,59,R,ugm-3,78,R,ugm-3,16,R,ugm-3
06-01-1997,03:00,0.6,R,mgm-3,8,R,ugm-3,52,R,ugm-3,63,R,ugm-3,16,R,ugm-3
06-01-1997,04:00,0.9,R,mgm-3,5,R,ugm-3,42,R,ugm-3,50,R,ugm-3,16,R,ugm-3
06-01-1997,05:00,0.7,R,mgm-3,19,R,ugm-3,63,R,ugm-3,92,R,ugm-3,13,R,ugm-3
06-01-1997,06:00,0.8,R,mgm-3,11,R,ugm-3,63,R,ugm-3,80,R,ugm-3,16,R,ugm-3
06-01-1997,07:00,1.6,R,mgm-3,28,R,ugm-3,111,R,ugm-3,153,R,ugm-3,21,R,ugm-3
06-01-1997,08:00,1.7,R,mgm-3,88,R,ugm-3,181,R,ugm-3,315,R,ugm-3,24,R,ugm-3
06-01-1997,09:00,3.9,R,mgm-3,131,R,ugm-3,218,R,ugm-3,418,R,ugm-3,29,R,ugm-3
06-01-1997,10:00,2.8,R,mgm-3,129,R,ugm-3,227,R,ugm-3,424,R,ugm-3,35,R,ugm-3
06-01-1997,11:00,2.1,R,mgm-3,,,,,,,,,,,,
06-01-1997,12:00,0.3,R,mgm-3,,,,,,,,,,,,
06-01-1997,13:00,,,,,,,,,,,,,,,
06-01-1997,14:00,,,,,,,,,,,,,24,R,ugm-3
06-01-1997,15:00,1.9,R,mgm-3,,,,,,,,,,16,R,ugm-3
06-01-1997,16:00,4.3,R,mgm-3,113,R,ugm-3,149,R,ugm-3,321,R,ugm-3,93,R,ugm-3
06-01-1997,17:00,3.5,R,mgm-3,170,R,ugm-3,225,R,ugm-3,485,R,ugm-3,32,R,ugm-3
06-01-1997,18:00,4.5,R,mgm-3,190,R,ugm-3,231,R,ugm-3,521,R,ugm-3,29,R,ugm-3
06-01-1997,19:00,3.5,R,mgm-3,121,R,ugm-3,208,R,ugm-3,393,R,ugm-3,21,R,ugm-3
06-01-1997,20:00,2.6,R,mgm-3,46,R,ugm-3,151,R,ugm-3,222,R,ugm-3,19,R,ugm-3
06-01-1997,21:00,3.2,R,mgm-3,83,R,ugm-3,176,R,ugm-3,302,R,ugm-3,24,R,ugm-3
06-01-1997,22:00,3.0,R,mgm-3,95,R,ugm-3,168,R,ugm-3,313,R,ugm-3,29,R,ugm-3
06-01-1997,23:00,3.2,R,mgm-3,103,R,ugm-3,162,R,ugm-3,319,R,ugm-3,24,R,ugm-3
06-01-1997,24:00,2.1,R,mgm-3,70,R,ugm-3,153,R,ugm-3,260,R,ugm-3,21,R,ugm-3
07-01-1997,01:00,1.4,R,mgm-3,20,R,ugm-3,107,R,ugm-3,138,R,ugm-3,13,R,ugm-3
07-01-1997,02:00,0.9,R,mgm-3,6,R,ugm-3,73,R,ugm-3,82,R,ugm-3,24,R,ugm-3
07-01-1997,03:00,1.0,R,mgm-3,19,R,ugm-3,80,R,ugm-3,109,R,ugm-3,19,R,ugm-3
07-01-1997,04:00,0.8,R,mgm-3,5,R,ugm-3,57,R,ugm-3,65,R,ugm-3,11,R,ugm-3
07-01-1997,05:00,0.8,R,mgm-3,33,R,ugm-3,73,R,ugm-3,122,R,ugm-3,16,R,ugm-3
07-01-1997,06:00,0.7,R,mgm-3,18,R,ugm-3,78,R,ugm-3,105,R,ugm-3,16,R,ugm-3
07-01-1997,07:00,0.9,R,mgm-3,39,R,ugm-3,113,R,ugm-3,172,R,ugm-3,16,R,ugm-3
07-01-1997,08:00,1.7,R,mgm-3,73,R,ugm-3,166,R,ugm-3,277,R,ugm-3,21,R,ugm-3
07-01-1997,09:00,2.7,R,mgm-3,85,R,ugm-3,189,R,ugm-3,319,R,ugm-3,27,R,ugm-3
07-01-1997,10:00,1.5,R,mgm-3,74,R,ugm-3,176,R,ugm-3,288,R,ugm-3,27,R,ugm-3
07-01-1997,11:00,2.6,R,mgm-3,120,R,ugm-3,181,R,ugm-3,365,R,ugm-3,29,R,ugm-3
07-01-1997,12:00,2.1,R,mgm-3,124,R,ugm-3,138,R,ugm-3,327,R,ugm-3,24,R,ugm-3
07-01-1997,13:00,2.2,R,mgm-3,90,R,ugm-3,176,R,ugm-3,313,R,ugm-3,27,R,ugm-3
07-01-1997,14:00,3.8,R,mgm-3,85,R,ugm-3,181,R,ugm-3,311,R,ugm-3,29,R,ugm-3
07-01-1997,15:00,3.5,R,mgm-3,108,R,ugm-3,187,R,ugm-3,351,R,ugm-3,24,R,ugm-3
07-01-1997,16:00,3.1,R,mgm-3,173,R,ugm-3,212,R,ugm-3,476,R,ugm-3,32,R,ugm-3
07-01-1997,17:00,3.0,R,mgm-3,100,R,ugm-3,170,R,ugm-3,323,R,ugm-3,27,R,ugm-3
07-01-1997,18:00,3.8,R,mgm-3,121,R,ugm-3,193,R,ugm-3,378,R,ugm-3,24,R,ugm-3
07-01-1997,19:00,2.9,R,mgm-3,73,R,ugm-3,155,R,ugm-3,265,R,ugm-3,21,R,ugm-3
07-01-1997,20:00,1.6,R,mgm-3,45,R,ugm-3,120,R,ugm-3,189,R,ugm-3,21,R,ugm-3
07-01-1997,21:00,2.0,R,mgm-3,55,R,ugm-3,120,R,ugm-3,204,R,ugm-3,24,R,ugm-3
07-01-1997,22:00,2.2,R,mgm-3,36,R,ugm-3,117,R,ugm-3,172,R,ugm-3,19,R,ugm-3
07-01-1997,23:00,1.5,R,mgm-3,20,R,ugm-3,92,R,ugm-3,122,R,ugm-3,21,R,ugm-3
07-01-1997,24:00,1.2,R,mgm-3,19,R,ugm-3,82,R,ugm-3,111,R,ugm-3,21,R,ugm-3
08-01-1997,01:00,1.0,R,mgm-3,13,R,ugm-3,67,R,ugm-3,86,R,ugm-3,16,R,ugm-3
08-01-1997,02:00,0.7,R,mgm-3,5,R,ugm-3,65,R,ugm-3,73,R,ugm-3,27,R,ugm-3
08-01-1997,03:00,1.4,R,mgm-3,8,R,ugm-3,84,R,ugm-3,96,R,ugm-3,40,R,ugm-3
08-01-1997,04:00,1.0,R,mgm-3,6,R,ugm-3,78,R,ugm-3,88,R,ugm-3,45,R,ugm-3
08-01-1997,05:00,0.8,R,mgm-3,6,R,ugm-3,65,R,ugm-3,74,R,ugm-3,35,R,ugm-3
08-01-1997,06:00,0.9,R,mgm-3,4,R,ugm-3,53,R,ugm-3,59,R,ugm-3,27,R,ugm-3
08-01-1997,07:00,0.9,R,mgm-3,23,R,ugm-3,96,R,ugm-3,130,R,ugm-3,16,R,ugm-3
08-01-1997,08:00,2.2,R,mgm-3,54,R,ugm-3,128,R,ugm-3,210,R,ugm-3,21,R,ugm-3
08-01-1997,09:00,3.1,R,mgm-3,70,R,ugm-3,145,R,ugm-3,252,R,ugm-3,32,R,ugm-3
08-01-1997,10:00,2.7,R,mgm-3,160,R,ugm-3,185,R,ugm-3,430,R,ugm-3,45,R,ugm-3
08-01-1997,11:00,,,,,,,,,,,,,24,R,ugm-3
08-01-1997,12:00,1.2,R,mgm-3,,,,,,,,,,61,R,ugm-3
08-01-1997,13:00,2.1,R,mgm-3,41,R,ugm-3,124,R,ugm-3,187,R,ugm-3,,,
08-01-1997,14:00,1.9,R,mgm-3,55,R,ugm-3,151,R,ugm-3,235,R,ugm-3,29,R,ugm-3
08-01-1997,15:00,3.7,R,mgm-3,96,R,ugm-3,170,R,ugm-3,317,R,ugm-3,29,R,ugm-3
08-01-1997,16:00,3.4,R,mgm-3,169,R,ugm-3,199,R,ugm-3,456,R,ugm-3,29,R,ugm-3
08-01-1997,17:00,4.2,R,mgm-3,131,R,ugm-3,195,R,ugm-3,395,R,ugm-3,35,R,ugm-3
08-01-1997,18:00,5.0,R,mgm-3,144,R,ugm-3,220,R,ugm-3,439,R,ugm-3,35,R,ugm-3
08-01-1997,19:00,2.8,R,mgm-3,45,R,ugm-3,141,R,ugm-3,210,R,ugm-3,27,R,ugm-3
08-01-1997,20:00,1.4,R,mgm-3,26,R,ugm-3,113,R,ugm-3,153,R,ugm-3,19,R,ugm-3
08-01-1997,21:00,1.6,R,mgm-3,39,R,ugm-3,124,R,ugm-3,183,R,ugm-3,24,R,ugm-3
08-01-1997,22:00,1.9,R,mgm-3,25,R,ugm-3,101,R,ugm-3,139,R,ugm-3,21,R,ugm-3
08-01-1997,23:00,1.5,R,mgm-3,23,R,ugm-3,94,R,ugm-3,128,R,ugm-3,21,R,ugm-3
08-01-1997,24:00,1.9,R,mgm-3,24,R,ugm-3,92,R,ugm-3,128,R,ugm-3,11,R,ugm-3
09-01-1997,01:00,0.8,R,mgm-3,6,R,ugm-3,50,R,ugm-3,59,R,ugm-3,11,R,ugm-3
09-01-1997,02:00,1.2,R,mgm-3,5,R,ugm-3,46,R,ugm-3,53,R,ugm-3,5,R,ugm-3
09-01-1997,03:00,0.9,R,mgm-3,6,R,ugm-3,48,R,ugm-3,57,R,ugm-3,13,R,ugm-3
09-01-1997,04:00,1.2,R,mgm-3,6,R,ugm-3,52,R,ugm-3,61,R,ugm-3,11,R,ugm-3
09-01-1997,05:00,0.9,R,mgm-3,14,R,ugm-3,71,R,ugm-3,92,R,ugm-3,8,R,ugm-3
09-01-1997,06:00,1.3,R,mgm-3,8,R,ugm-3,63,R,ugm-3,74,R,ugm-3,11,R,ugm-3
09-01-1997,07:00,1.2,R,mgm-3,23,R,ugm-3,99,R,ugm-3,134,R,ugm-3,19,R,ugm-3
09-01-1997,08:00,2.1,R,mgm-3,58,R,ugm-3,145,R,ugm-3,233,R,ugm-3,21,R,ugm-3
09-01-1997,09:00,2.2,R,mgm-3,65,R,ugm-3,157,R,ugm-3,256,R,ugm-3,32,R,ugm-3
09-01-1997,10:00,2.2,R,mgm-3,83,R,ugm-3,185,R,ugm-3,311,R,ugm-3,29,R,ugm-3
09-01-1997,11:00,2.0,R,mgm-3,73,R,ugm-3,145,R,ugm-3,256,R,ugm-3,35,R,ugm-3
09-01-1997,12:00,2.4,R,mgm-3,101,R,ugm-3,105,R,ugm-3,260,R,ugm-3,35,R,ugm-3
09-01-1997,13:00,4.3,R,mgm-3,80,R,ugm-3,181,R,ugm-3,304,R,ugm-3,37,R,ugm-3
09-01-1997,14:00,2.2,R,mgm-3,74,R,ugm-3,183,R,ugm-3,296,R,ugm-3,35,R,ugm-3
09-01-1997,15:00,2.8,R,mgm-3,118,R,ugm-3,202,R,ugm-3,382,R,ugm-3,37,R,ugm-3
09-01-1997,16:00,3.0,R,mgm-3,44,R,ugm-3,164,R,ugm-3,231,R,ugm-3,32,R,ugm-3
09-01-1997,17:00,1.6,R,mgm-3,39,R,ugm-3,153,R,ugm-3,212,R,ugm-3,29,R,ugm-3
09-01-1997,18:00,2.6,R,mgm-3,74,R,ugm-3,153,R,ugm-3,265,R,ugm-3,29,R,ugm-3
09-01-1997,19:00,2.3,R,mgm-3,66,R,ugm-3,155,R,ugm-3,256,R,ugm-3,27,R,ugm-3
09-01-1997,20:00,2.3,R,mgm-3,33,R,ugm-3,132,R,ugm-3,181,R,ugm-3,27,R,ugm-3
09-01-1997,21:00,1.7,R,mgm-3,20,R,ugm-3,109,R,ugm-3,139,R,ugm-3,19,R,ugm-3
09-01-1997,22:00,2.2,R,mgm-3,34,R,ugm-3,109,R,ugm-3,160,R,ugm-3,24,R,ugm-3
09-01-1997,23:00,1.7,R,mgm-3,28,R,ugm-3,101,R,ugm-3,143,R,ugm-3,21,R,ugm-3
09-01-1997,24:00,1.4,R,mgm-3,16,R,ugm-3,82,R,ugm-3,107,R,ugm-3,24,R,ugm-3
10-01-1997,01:00,0.8,R,mgm-3,6,R,ugm-3,44,R,ugm-3,53,R,ugm-3,19,R,ugm-3
10-01-1997,02:00,1.3,R,mgm-3,14,R,ugm-3,80,R,ugm-3,101,R,ugm-3,16,R,ugm-3
10-01-1997,03:00,0.9,R,mgm-3,6,R,ugm-3,63,R,ugm-3,73,R,ugm-3,16,R,ugm-3
10-01-1997,04:00,0.6,R,mgm-3,5,R,ugm-3,57,R,ugm-3,65,R,ugm-3,19,R,ugm-3
10-01-1997,05:00,0.8,R,mgm-3,13,R,ugm-3,74,R,ugm-3,94,R,ugm-3,19,R,ugm-3
10-01-1997,06:00,0.9,R,mgm-3,15,R,ugm-3,96,R,ugm-3,118,R,ugm-3,19,R,ugm-3
10-01-1997,07:00,1.6,R,mgm-3,59,R,ugm-3,162,R,ugm-3,252,R,ugm-3,24,R,ugm-3
10-01-1997,08:00,4.1,R,mgm-3,216,R,ugm-3,258,R,ugm-3,588,R,ugm-3,32,R,ugm-3
10-01-1997,09:00,3.8,R,mgm-3,214,R,ugm-3,269,R,ugm-3,596,R,ugm-3,32,R,ugm-3
10-01-1997,10:00,3.7,R,mgm-3,139,R,ugm-3,241,R,ugm-3,453,R,ugm-3,32,R,ugm-3
10-01-1997,11:00,,,,,,,,,,,,,,,
10-01-1997,12:00,3.1,R,mgm-3,,,,,,,,,,40,R,ugm-3
10-01-1997,13:00,3.4,R,mgm-3,131,R,ugm-3,244,R,ugm-3,445,R,ugm-3,37,R,ugm-3
10-01-1997,14:00,3.4,R,mgm-3,158,R,ugm-3,239,R,ugm-3,479,R,ugm-3,37,R,ugm-3
10-01-1997,15:00,1.7,R,mgm-3,,,,,,,,,,40,R,ugm-3
10-01-1997,16:00,3.2,R,mgm-3,,,,,,,,,,32,R,ugm-3
10-01-1997,17:00,4.6,R,mgm-3,160,R,ugm-3,235,R,ugm-3,479,R,ugm-3,35,R,ugm-3
10-01-1997,18:00,4.9,R,mgm-3,175,R,ugm-3,229,R,ugm-3,497,R,ugm-3,37,R,ugm-3
10-01-1997,19:00,3.6,R,mgm-3,153,R,ugm-3,202,R,ugm-3,435,R,ugm-3,32,R,ugm-3
10-01-1997,20:00,4.1,R,mgm-3,105,R,ugm-3,189,R,ugm-3,350,R,ugm-3,29,R,ugm-3
10-01-1997,21:00,3.7,R,mgm-3,114,R,ugm-3,193,R,ugm-3,367,R,ugm-3,29,R,ugm-3
10-01-1997,22:00,3.0,R,mgm-3,105,R,ugm-3,187,R,ugm-3,348,R,ugm-3,35,R,ugm-3
10-01-1997,23:00,2.2,R,mgm-3,71,R,ugm-3,174,R,ugm-3,283,R,ugm-3,29,R,ugm-3
10-01-1997,24:00,3.6,R,mgm-3,85,R,ugm-3,149,R,ugm-3,279,R,ugm-3,29,R,ugm-3
11-01-1997,01:00,2.1,R,mgm-3,46,R,ugm-3,130,R,ugm-3,201,R,ugm-3,27,R,ugm-3
11-01-1997,02:00,1.9,R,mgm-3,24,R,ugm-3,113,R,ugm-3,149,R,ugm-3,24,R,ugm-3
11-01-1997,03:00,2.0,R,mgm-3,30,R,ugm-3,107,R,ugm-3,153,R,ugm-3,24,R,ugm-3
11-01-1997,04:00,1.4,R,mgm-3,5,R,ugm-3,82,R,ugm-3,90,R,ugm-3,21,R,ugm-3
11-01-1997,05:00,1.4,R,mgm-3,13,R,ugm-3,82,R,ugm-3,101,R,ugm-3,21,R,ugm-3
11-01-1997,06:00,1.6,R,mgm-3,23,R,ugm-3,97,R,ugm-3,132,R,ugm-3,27,R,ugm-3
11-01-1997,07:00,1.9,R,mgm-3,21,R,ugm-3,117,R,ugm-3,149,R,ugm-3,21,R,ugm-3
11-01-1997,08:00,2.0,R,mgm-3,75,R,ugm-3,145,R,ugm-3,260,R,ugm-3,24,R,ugm-3
11-01-1997,09:00,3.6,R,mgm-3,109,R,ugm-3,168,R,ugm-3,334,R,ugm-3,32,R,ugm-3
11-01-1997,10:00,3.5,R,mgm-3,139,R,ugm-3,201,R,ugm-3,413,R,ugm-3,27,R,ugm-3
11-01-1997,11:00,3.7,R,mgm-3,141,R,ugm-3,202,R,ugm-3,418,R,ugm-3,29,R,ugm-3
11-01-1997,12:00,3.7,R,mgm-3,118,R,ugm-3,208,R,ugm-3,388,R,ugm-3,29,R,ugm-3
11-01-1997,13:00,3.6,R,mgm-3,105,R,ugm-3,210,R,ugm-3,371,R,ugm-3,32,R,ugm-3
11-01-1997,14:00,4.6,R,mgm-3,123,R,ugm-3,225,R,ugm-3,413,R,ugm-3,29,R,ugm-3
11-01-1997,15:00,3.7,R,mgm-3,129,R,ugm-3,237,R,ugm-3,434,R,ugm-3,29,R,ugm-3
11-01-1997,16:00,3.1,R,mgm-3,84,R,ugm-3,206,R,ugm-3,334,R,ugm-3,24,R,ugm-3
11-01-1997,17:00,4.1,R,mgm-3,154,R,ugm-3,227,R,ugm-3,462,R,ugm-3,27,R,ugm-3
11-01-1997,18:00,4.1,R,mgm-3,204,R,ugm-3,216,R,ugm-3,527,R,ugm-3,29,R,ugm-3
11-01-1997,19:00,2.9,R,mgm-3,94,R,ugm-3,166,R,ugm-3,309,R,ugm-3,24,R,ugm-3
11-01-1997,20:00,3.0,R,mgm-3,74,R,ugm-3,151,R,ugm-3,264,R,ugm-3,21,R,ugm-3
11-01-1997,21:00,3.0,R,mgm-3,64,R,ugm-3,145,R,ugm-3,243,R,ugm-3,21,R,ugm-3
11-01-1997,22:00,2.7,R,mgm-3,55,R,ugm-3,132,R,ugm-3,216,R,ugm-3,21,R,ugm-3
11-01-1997,23:00,2.8,R,mgm-3,39,R,ugm-3,128,R,ugm-3,187,R,ugm-3,21,R,ugm-3
11-01-1997,24:00,2.9,R,mgm-3,41,R,ugm-3,130,R,ugm-3,193,R,ugm-3,24,R,ugm-3
12-01-1997,01:00,3.5,R,mgm-3,43,R,ugm-3,118,R,ugm-3,183,R,ugm-3,21,R,ugm-3
12-01-1997,02:00,2.0,R,mgm-3,19,R,ugm-3,96,R,ugm-3,124,R,ugm-3,19,R,ugm-3
12-01-1997,03:00,1.6,R,mgm-3,24,R,ugm-3,92,R,ugm-3,128,R,ugm-3,21,R,ugm-3
12-01-1997,04:00,1.3,R,mgm-3,23,R,ugm-3,86,R,ugm-3,120,R,ugm-3,16,R,ugm-3
12-01-1997,05:00,1.0,R,mgm-3,9,R,ugm-3,71,R,ugm-3,84,R,ugm-3,11,R,ugm-3
12-01-1997,06:00,1.4,R,mgm-3,36,R,ugm-3,84,R,ugm-3,139,R,ugm-3,19,R,ugm-3
12-01-1997,07:00,1.0,R,mgm-3,31,R,ugm-3,80,R,ugm-3,128,R,ugm-3,19,R,ugm-3
12-01-1997,08:00,0.9,R,mgm-3,14,R,ugm-3,80,R,ugm-3,101,R,ugm-3,19,R,ugm-3
12-01-1997,09:00,1.2,R,mgm-3,48,R,ugm-3,97,R,ugm-3,170,R,ugm-3,19,R,ugm-3
12-01-1997,10:00,1.4,R,mgm-3,20,R,ugm-3,90,R,ugm-3,120,R,ugm-3,21,R,ugm-3
12-01-1997,11:00,1.6,R,mgm-3,45,R,ugm-3,117,R,ugm-3,185,R,ugm-3,21,R,ugm-3
12-01-1997,12:00,1.2,R,mgm-3,38,R,ugm-3,120,R,ugm-3,178,R,ugm-3,21,R,ugm-3
12-01-1997,13:00,2.0,R,mgm-3,60,R,ugm-3,120,R,ugm-3,212,R,ugm-3,21,R,ugm-3
12-01-1997,14:00,1.6,R,mgm-3,35,R,ugm-3,109,R,ugm-3,162,R,ugm-3,24,R,ugm-3
12-01-1997,15:00,1.3,R,mgm-3,24,R,ugm-3,107,R,ugm-3,143,R,ugm-3,21,R,ugm-3
12-01-1997,16:00,1.3,R,mgm-3,24,R,ugm-3,109,R,ugm-3,145,R,ugm-3,21,R,ugm-3
12-01-1997,17:00,1.2,R,mgm-3,28,R,ugm-3,105,R,ugm-3,147,R,ugm-3,24,R,ugm-3
12-01-1997,18:00,2.4,R,mgm-3,35,R,ugm-3,113,R,ugm-3,166,R,ugm-3,21,R,ugm-3
12-01-1997,19:00,2.2,R,mgm-3,56,R,ugm-3,124,R,ugm-3,210,R,ugm-3,24,R,ugm-3
12-01-1997,20:00,1.6,R,mgm-3,36,R,ugm-3,122,R,ugm-3,178,R,ugm-3,24,R,ugm-3
12-01-1997,21:00,1.4,R,mgm-3,15,R,ugm-3,92,R,ugm-3,115,R,ugm-3,24,R,ugm-3
12-01-1997,22:00,1.4,R,mgm-3,29,R,ugm-3,105,R,ugm-3,149,R,ugm-3,21,R,ugm-3
12-01-1997,23:00,1.5,R,mgm-3,13,R,ugm-3,90,R,ugm-3,109,R,ugm-3,21,R,ugm-3
12-01-1997,24:00,2.2,R,mgm-3,25,R,ugm-3,90,R,ugm-3,128,R,ugm-3,24,R,ugm-3
13-01-1997,01:00,1.2,R,mgm-3,9,R,ugm-3,71,R,ugm-3,84,R,ugm-3,21,R,ugm-3
13-01-1997,02:00,1.4,R,mgm-3,10,R,ugm-3,71,R,ugm-3,86,R,ugm-3,21,R,ugm-3
13-01-1997,03:00,0.7,R,mgm-3,8,R,ugm-3,48,R,ugm-3,59,R,ugm-3,19,R,ugm-3
13-01-1997,04:00,0.5,R,mgm-3,5,R,ugm-3,38,R,ugm-3,46,R,ugm-3,27,R,ugm-3
13-01-1997,05:00,0.6,R,mgm-3,6,R,ugm-3,38,R,ugm-3,48,R,ugm-3,19,R,ugm-3
13-01-1997,06:00,0.7,R,mgm-3,6,R,ugm-3,44,R,ugm-3,53,R,ugm-3,24,R,ugm-3
13-01-1997,07:00,0.8,R,mgm-3,19,R,ugm-3,86,R,ugm-3,115,R,ugm-3,24,R,ugm-3
13-01-1997,08:00,1.5,R,mgm-3,66,R,ugm-3,159,R,ugm-3,260,R,ugm-3,29,R,ugm-3
13-01-1997,09:00,2.9,R,mgm-3,109,R,ugm-3,202,R,ugm-3,369,R,ugm-3,37,R,ugm-3
13-01-1997,10:00,2.8,R,mgm-3,146,R,ugm-3,216,R,ugm-3,439,R,ugm-3,40,R,ugm-3
13-01-1997,11:00,2.1,R,mgm-3,59,R,ugm-3,172,R,ugm-3,262,R,ugm-3,43,R,ugm-3
13-01-1997,12:00,1.7,R,mgm-3,91,R,ugm-3,130,R,ugm-3,269,R,ugm-3,133,R,ugm-3
13-01-1997,13:00,1.9,R,mgm-3,41,R,ugm-3,126,R,ugm-3,189,R,ugm-3,106,R,ugm-3
13-01-1997,14:00,3.6,R,mgm-3,61,R,ugm-3,164,R,ugm-3,258,R,ugm-3,72,R,ugm-3
13-01-1997,15:00,1.9,R,mgm-3,41,R,ugm-3,166,R,ugm-3,229,R,ugm-3,69,R,ugm-3
13-01-1997,16:00,2.2,R,mgm-3,103,R,ugm-3,204,R,ugm-3,361,R,ugm-3,59,R,ugm-3
13-01-1997,17:00,3.2,R,mgm-3,118,R,ugm-3,210,R,ugm-3,390,R,ugm-3,53,R,ugm-3
13-01-1997,18:00,3.8,R,mgm-3,188,R,ugm-3,243,R,ugm-3,529,R,ugm-3,53,R,ugm-3
13-01-1997,19:00,3.0,R,mgm-3,153,R,ugm-3,256,R,ugm-3,489,R,ugm-3,45,R,ugm-3
13-01-1997,20:00,3.5,R,mgm-3,111,R,ugm-3,239,R,ugm-3,409,R,ugm-3,43,R,ugm-3
13-01-1997,21:00,2.9,R,mgm-3,105,R,ugm-3,220,R,ugm-3,380,R,ugm-3,37,R,ugm-3
13-01-1997,22:00,3.9,R,mgm-3,158,R,ugm-3,220,R,ugm-3,460,R,ugm-3,37,R,ugm-3
13-01-1997,23:00,3.9,R,mgm-3,144,R,ugm-3,223,R,ugm-3,443,R,ugm-3,37,R,ugm-3
13-01-1997,24:00,2.7,R,mgm-3,113,R,ugm-3,208,R,ugm-3,380,R,ugm-3,37,R,ugm-3
14-01-1997,01:00,2.2,R,mgm-3,54,R,ugm-3,174,R,ugm-3,256,R,ugm-3,32,R,ugm-3
14-01-1997,02:00,2.1,R,mgm-3,28,R,ugm-3,149,R,ugm-3,191,R,ugm-3,29,R,ugm-3
14-01-1997,03:00,2.0,R,mgm-3,36,R,ugm-3,145,R,ugm-3,201,R,ugm-3,32,R,ugm-3
14-01-1997,04:00,1.7,R,mgm-3,25,R,ugm-3,128,R,ugm-3,166,R,ugm-3,24,R,ugm-3
14-01-1997,05:00,1.6,R,mgm-3,26,R,ugm-3,132,R,ugm-3,172,R,ugm-3,32,R,ugm-3
14-01-1997,06:00,2.0,R,mgm-3,44,R,ugm-3,153,R,ugm-3,220,R,ugm-3,29,R,ugm-3
14-01-1997,07:00,2.6,R,mgm-3,74,R,ugm-3,180,R,ugm-3,292,R,ugm-3,32,R,ugm-3
14-01-1997,08:00,3.5,R,mgm-3,241,R,ugm-3,304,R,ugm-3,672,R,ugm-3,43,R,ugm-3
14-01-1997,09:00,4.4,R,mgm-3,278,R,ugm-3,267,R,ugm-3,691,R,ugm-3,45,R,ugm-3
14-01-1997,10:00,4.5,R,mgm-3,259,R,ugm-3,262,R,ugm-3,657,R,ugm-3,45,R,ugm-3
14-01-1997,11:00,3.7,R,mgm-3,204,R,ugm-3,264,R,ugm-3,575,R,ugm-3,45,R,ugm-3
14-01-1997,12:00,2.7,R,mgm-3,201,R,ugm-3,269,R,ugm-3,577,R,ugm-3,56,R,ugm-3
14-01-1997,13:00,3.7,R,mgm-3,244,R,ugm-3,193,R,ugm-3,565,R,ugm-3,64,R,ugm-3
14-01-1997,14:00,3.7,R,mgm-3,196,R,ugm-3,216,R,ugm-3,516,R,ugm-3,51,R,ugm-3
14-01-1997,15:00,4.1,R,mgm-3,253,R,ugm-3,214,R,ugm-3,600,R,ugm-3,56,R,ugm-3
14-01-1997,16:00,4.9,R,mgm-3,223,R,ugm-3,283,R,ugm-3,623,R,ugm-3,56,R,ugm-3
14-01-1997,17:00,4.3,R,mgm-3,215,R,ugm-3,294,R,ugm-3,623,R,ugm-3,48,R,ugm-3
14-01-1997,18:00,6.4,R,mgm-3,341,R,ugm-3,332,R,ugm-3,854,R,ugm-3,51,R,ugm-3
14-01-1997,19:00,4.8,R,mgm-3,255,R,ugm-3,256,R,ugm-3,646,R,ugm-3,45,R,ugm-3
14-01-1997,20:00,5.6,R,mgm-3,273,R,ugm-3,264,R,ugm-3,680,R,ugm-3,48,R,ugm-3
14-01-1997,21:00,5.0,R,mgm-3,173,R,ugm-3,218,R,ugm-3,481,R,ugm-3,43,R,ugm-3
14-01-1997,22:00,4.5,R,mgm-3,193,R,ugm-3,220,R,ugm-3,514,R,ugm-3,40,R,ugm-3
14-01-1997,23:00,3.5,R,mgm-3,118,R,ugm-3,214,R,ugm-3,393,R,ugm-3,40,R,ugm-3